Location: Chamerau
(49.1969°N, 12.7525°E)
Time: 06:21:06
(UTC+00:00)

Cosmos 1844 Rocket - Pass Details

Date: 18 September 2020
Orbit: 823 x 846 km, 71.0° (Epoch: 27 October)

Event Time Altitude Azimuth Distance (km) Brightness Sun altitude
Rises 19:39:04 0° 208° (SSW) 3,347 5.8 -23.1°
Reaches altitude 10° 19:41:29 10° 209° (SSW) 2,419 5.0 -23.4°
Maximum altitude 19:47:02 85° 299° (WNW) 836 2.6 -24.2°
Drops below altitude 10° 19:52:39 10° 28° (NNE) 2,446 5.2 -24.9°
Sets 19:55:06 0° 29° (NNE) 3,386 5.9 -25.3°
